Home   Weather   Kagoshima   Past weeks
Flag for Japan

Past Weather in Kagoshima, Japan — Yesterday and Last 2 Weeks

Now
81 °F

Warm.


Feels Like: 89 °F
Forecast: 86 / 78 °F
Wind: 3 mph from Northeast

Location: Kagoshima

Current Time: Jul 18, 2019 at 7:43:46 am

Latest Report: Jul 18, 2019 at 7:00 am


Visibility: N/A

Pressure: 29.82 "Hg

Humidity: 87%

Dew Point: 77 °F

Location of KagoshimaLocation

Past Weather in Kagoshima — Graph

°F

Kagoshima Temperature Yesterday

Maximum temperature yesterday: 90 °F (at 3:00 pm)
Minimum temperature yesterday: 77 °F (at 4:00 am)
Average temperature yesterday: 82 °F

High & Low Weather Summary for the Past Weeks

 TemperatureHumidityPressure
High90 °F (Jul 17, 3:00 pm)100% (Jul 3, 11:00 pm)29.89 "Hg (Jul 3, 11:00 pm)
Low71 °F (Jul 13, 8:00 am)54% (Jul 12, 1:00 pm)29.50 "Hg (Jul 5, 5:00 pm)
Average79 °F83%29.69 "Hg
* Reported Jul 3 6:00 am — Jul 18 6:00 am, Kagoshima. Weather by CustomWeather, © 2019

Note: Actual official high and low records may vary slightly from our data, if they occured in-between our weather recording intervals... More about our weather records

Advertising

Kagoshima Weather History for the Previous 24 Hours

Scroll right to see more
 ConditionsComfort  
Time TempWeatherWind HumidityBarometerVisibility
6:00 am
Thu, Jul 18
81 °FOvercast.6 mph88%29.81 "Hg12 mi
5:00 am80 °FWarm.5 mph94%29.82 "HgN/A
4:00 am81 °FWarm.2 mph91%29.81 "HgN/A
3:00 am82 °FOvercast.6 mph85%29.81 "Hg9 mi
2:00 am83 °FWarm.5 mph82%29.83 "HgN/A
1:00 am83 °FWarm.5 mph80%29.83 "HgN/A
12:00 am83 °FWarm.7 mph78%29.85 "HgN/A
11:00 pm
Wed, Jul 17
84 °FWarm.9 mph77%29.86 "HgN/A
10:00 pm84 °FWarm.10 mph76%29.86 "HgN/A
9:00 pm84 °FOvercast.3 mph74%29.86 "Hg12 mi
8:00 pm84 °FWarm.7 mph81%29.85 "HgN/A
6:00 pm87 °FOvercast.7 mph73%29.83 "Hg9 mi
5:00 pm87 °FWarm.5 mph72%29.82 "HgN/A
4:00 pm88 °FWarm.7 mph72%29.82 "HgN/A
3:00 pm90 °FOvercast.7 mph65%29.83 "Hg9 mi
2:00 pm89 °FHot.5 mph65%29.84 "HgN/A
1:00 pm87 °FWarm.5 mph71%29.85 "HgN/A
12:00 pm84 °FOvercast.3 mph75%29.87 "Hg6 mi
11:00 am82 °FWarm.3 mph81%29.88 "HgN/A
10:00 am80 °FWarm.3 mph86%29.89 "HgN/A
9:00 am80 °FFog.6 mph86%29.88 "Hg5 mi
8:00 am79 °FWarm.3 mph91%29.87 "HgN/A
7:00 am78 °FWarm.3 mph93%29.87 "HgN/A
Weather by CustomWeather, © 2019

See weather overview